GSAT0101 (GALILEO-PFM)

Last updated on Sun Dec 14 2025 00:02:35 GMT+0000 (Coordinated Universal Time)

1 37846U 11060A 25346.90089229 -.00000087 00000+0 00000+0 0 9999 2 37846 57.0527 346.8154 0003025 315.3436 44.6506 1.70475751 87942
UTC large
Height (km)
Speed (km/s)
/
Latitude / Longitude
Inclination (degrees)
Orbital Period (minutes)
Azimuth
Elevation
Range (km)
Doppler Factor

Next 0 passes for location: London (51.5072 / 0.1276)

Sorry there are no passes over London.